QPF
0.05 0.05 0.06 0.05 0.05 0.03 0.05 0.08 0.09 0.07 0.06 0.02 0.01 0.01 0.03 0.03 0.07 0.12 0.07 0.05 0.04 0.04 0.03 0.02 0.02 0.03 0.04 0.04 0.04 0.02 0.01 0.01 0.01 0.00 0.00 0.00 0.00 0.01
0.03 0.04 0.05 0.06 0.05 0.03 0.03 0.06 0.09 0.10 0.07 0.02 0.01 0.01 0.04 0.05 0.06 0.07 0.07 0.06 0.04 0.03 0.02 0.02 0.01 0.02 0.03 0.03 0.03 0.02 0.02 0.01 0.01 0.01 0.01 0.00 0.01 0.01
0.04 0.04 0.05 0.05 0.04 0.02 0.02 0.03 0.06 0.07 0.05 0.02 0.01 0.02 0.04 0.05 0.05 0.05 0.06 0.05 0.04 0.03 0.02 0.01 0.01 0.01 0.02 0.02 0.01 0.01 0.01 0.01 0.01 0.02 0.01 0.01 0.02 0.02
0.03 0.04 0.04 0.04 0.03 0.01 0.01 0.02 0.03 0.04 0.05 0.03 0.02 0.02 0.03 0.05 0.07 0.09 0.09 0.07 0.05 0.04 0.02 0.02 0.02 0.01 0.01 0.01 0.01 0.01 0.01 0.02 0.02 0.03 0.02 0.02 0.02 0.03
0.03 0.03 0.02 0.02 0.01 0.01 0.01 0.01 0.02 0.04 0.04 0.03 0.02 0.02 0.03 0.04 0.07 0.11 0.11 0.09 0.07 0.05 0.03 0.03 0.03 0.02 0.02 0.02 0.02 0.02 0.02 0.03 0.04 0.04 0.04 0.03 0.03 0.03
0.03 0.02 0.02 0.02 0.01 0.01 0.01 0.01 0.01 0.02 0.03 0.03 0.02 0.02 0.03 0.04 0.06 0.08 0.09 0.09 0.08 0.07 0.05 0.04 0.04 0.04 0.04 0.04 0.05 0.05 0.05 0.05 0.05 0.05 0.05 0.04 0.04 0.03
0.02 0.02 0.01 0.02 0.01 0.01 0.01 0.01 0.01 0.02 0.02 0.02 0.02 0.02 0.02 0.04 0.04 0.07 0.09 0.09 0.09 0.07 0.06 0.04 0.04 0.04 0.03 0.04 0.05 0.05 0.05 0.05 0.04 0.04 0.05 0.06 0.05 0.04
0.01 0.01 0.01 0.01 0.00 0.01 0.01 0.01 0.02 0.02 0.02 0.02 0.03 0.02 0.02 0.03 0.03 0.06 0.08 0.08 0.06 0.05 0.05 0.04 0.05 0.05 0.04 0.04 0.04 0.04 0.04 0.03 0.03 0.03 0.04 0.05 0.05 0.05
0.02 0.02 0.01 0.01 0.01 0.00 0.01 0.01 0.01 0.03 0.03 0.03 0.02 0.02 0.02 0.03 0.06 0.06 0.06 0.06 0.06 0.06 0.07 0.05 0.05 0.06 0.06 0.05 0.05 0.05 0.04 0.03 0.03 0.03 0.04 0.04 0.04 0.04
0.02 0.02 0.01 0.01 0.01 0.01 0.02 0.03 0.02 0.02 0.03 0.03 0.02 0.02 0.03 0.04 0.06 0.07 0.07 0.08 0.08 0.08 0.09 0.08 0.07 0.06 0.06 0.06 0.07 0.06 0.05 0.05 0.04 0.04 0.05 0.04 0.04 0.03
0.03 0.03 0.01 0.01 0.02 0.03 0.03 0.02 0.01 0.02 0.03 0.04 0.03 0.02 0.04 0.06 0.07 0.07 0.06 0.07 0.06 0.06 0.08 0.08 0.06 0.06 0.06 0.05 0.06 0.08 0.08 0.07 0.06 0.06 0.07 0.06 0.05 0.04
0.04 0.03 0.02 0.02 0.03 0.03 0.02 0.02 0.01 0.02 0.03 0.04 0.04 0.03 0.03 0.04 0.05 0.04 0.04 0.05 0.04 0.03 0.04 0.05 0.04 0.05 0.05 0.05 0.05 0.06 0.06 0.07 0.08 0.09 0.08 0.06 0.04 0.03
0.05 0.04 0.03 0.03 0.03 0.03 0.03 0.02 0.01 0.02 0.03 0.03 0.04 0.04 0.03 0.03 0.03 0.03 0.04 0.05 0.05 0.04 0.04 0.07 0.07 0.07 0.06 0.04 0.04 0.04 0.04 0.05 0.07 0.07 0.06 0.04 0.03 0.02
0.04 0.04 0.04 0.05 0.06 0.05 0.04 0.03 0.03 0.02 0.02 0.01 0.02 0.03 0.03 0.03 0.02 0.03 0.03 0.03 0.04 0.05 0.06 0.07 0.08 0.07 0.05 0.03 0.03 0.04 0.04 0.04 0.04 0.05 0.05 0.05 0.04 0.03
0.04 0.04 0.05 0.06 0.07 0.07 0.06 0.05 0.04 0.03 0.02 0.02 0.02 0.01 0.01 0.02 0.02 0.02 0.02 0.03 0.03 0.04 0.04 0.05 0.06 0.07 0.07 0.04 0.03 0.03 0.04 0.03 0.03 0.04 0.04 0.04 0.04 0.04
0.05 0.05 0.06 0.07 0.08 0.08 0.07 0.06 0.04 0.03 0.02 0.02 0.01 0.01 0.02 0.02 0.02 0.02 0.02 0.03 0.04 0.03 0.04 0.06 0.07 0.08 0.07 0.05 0.04 0.04 0.05 0.05 0.05 0.05 0.05 0.04 0.03 0.03
0.08 0.08 0.08 0.08 0.08 0.07 0.05 0.04 0.03 0.02 0.02 0.02 0.02 0.01 0.01 0.02 0.02 0.02 0.02 0.03 0.04 0.04 0.04 0.06 0.07 0.07 0.08 0.08 0.07 0.06 0.07 0.06 0.04 0.04 0.03 0.02 0.02 0.02
0.12 0.11 0.10 0.08 0.06 0.04 0.03 0.02 0.01 0.01 0.01 0.01 0.01 0.02 0.02 0.02 0.02 0.02 0.02 0.02 0.03 0.04 0.06 0.09 0.10 0.08 0.07 0.06 0.06 0.06 0.05 0.04 0.03 0.03 0.02 0.02 0.02 0.03
0.07 0.06 0.07 0.06 0.04 0.03 0.02 0.02 0.01 0.01 0.01 0.01 0.02 0.03 0.03 0.04 0.04 0.03 0.03 0.04 0.04 0.03 0.04 0.05 0.06 0.08 0.07 0.05 0.04 0.04 0.04 0.03 0.03 0.04 0.03 0.02 0.02 0.02
0.03 0.05 0.05 0.04 0.03 0.03 0.03 0.03 0.03 0.02 0.02 0.02 0.03 0.04 0.04 0.04 0.04 0.04 0.04 0.04 0.04 0.04 0.03 0.03 0.04 0.05 0.06 0.06 0.05 0.04 0.04 0.03 0.04 0.04 0.03 0.03 0.02 0.03
0.04 0.04 0.04 0.03 0.03 0.03 0.03 0.03 0.03 0.03 0.03 0.03 0.03 0.04 0.04 0.05 0.05 0.05 0.04 0.03 0.03 0.03 0.04 0.04 0.06 0.09 0.08 0.06 0.04 0.03 0.03 0.04 0.04 0.04 0.04 0.05 0.05 0.05
0.05 0.04 0.04 0.03 0.03 0.04 0.04 0.04 0.04 0.03 0.03 0.03 0.03 0.04 0.06 0.06 0.06 0.06 0.05 0.03 0.03 0.03 0.04 0.05 0.06 0.08 0.12 0.11 0.08 0.05 0.03 0.04 0.05 0.05 0.05 0.05 0.05 0.05
0.05 0.04 0.04 0.04 0.03 0.04 0.03 0.03 0.04 0.04 0.05 0.06 0.07 0.06 0.05 0.05 0.05 0.06 0.06 0.05 0.05 0.04 0.04 0.04 0.05 0.06 0.07 0.07 0.07 0.06 0.05 0.04 0.05 0.05 0.04 0.04 0.04 0.04
MSLP
1010.43 1010.59 1010.82 1011.09 1011.37 1011.62 1011.83 1012.00 1012.12 1012.23 1012.33 1012.44 1012.57 1012.72 1012.88 1013.03 1013.17 1013.29 1013.38 1013.47 1013.56 1013.66 1013.80 1013.96 1014.15 1014.36 1014.56 1014.73 1014.87 1014.98 1015.04 1015.07 1015.09 1015.10 1015.12 1015.15 1015.19 1015.23
1010.35 1010.47 1010.63 1010.82 1011.02 1011.20 1011.36 1011.49 1011.61 1011.72 1011.85 1011.99 1012.16 1012.35 1012.54 1012.73 1012.90 1013.06 1013.20 1013.33 1013.47 1013.62 1013.81 1014.01 1014.24 1014.47 1014.69 1014.88 1015.03 1015.13 1015.20 1015.23 1015.25 1015.27 1015.30 1015.35 1015.40 1015.45
1010.28 1010.38 1010.49 1010.62 1010.75 1010.86 1010.96 1011.06 1011.15 1011.26 1011.39 1011.56 1011.76 1011.98 1012.21 1012.43 1012.65 1012.84 1013.02 1013.20 1013.38 1013.58 1013.80 1014.04 1014.30 1014.54 1014.77 1014.97 1015.12 1015.23 1015.30 1015.35 1015.39 1015.43 1015.49 1015.55 1015.63 1015.70
1010.12 1010.23 1010.34 1010.43 1010.51 1010.58 1010.64 1010.70 1010.77 1010.87 1011.01 1011.19 1011.41 1011.66 1011.92 1012.17 1012.42 1012.65 1012.86 1013.07 1013.29 1013.52 1013.76 1014.02 1014.28 1014.53 1014.76 1014.95 1015.10 1015.21 1015.30 1015.37 1015.43 1015.50 1015.60 1015.70 1015.81 1015.91
1009.77 1009.93 1010.06 1010.17 1010.25 1010.30 1010.35 1010.40 1010.46 1010.56 1010.71 1010.90 1011.14 1011.40 1011.68 1011.96 1012.23 1012.48 1012.72 1012.95 1013.18 1013.42 1013.66 1013.92 1014.16 1014.40 1014.61 1014.78 1014.92 1015.04 1015.13 1015.22 1015.32 1015.43 1015.57 1015.72 1015.88 1016.02
1009.16 1009.39 1009.59 1009.74 1009.87 1009.96 1010.03 1010.10 1010.18 1010.30 1010.46 1010.66 1010.91 1011.18 1011.47 1011.76 1012.04 1012.31 1012.56 1012.80 1013.04 1013.27 1013.50 1013.73 1013.94 1014.14 1014.32 1014.46 1014.58 1014.68 1014.78 1014.89 1015.01 1015.17 1015.35 1015.56 1015.76 1015.95
1008.26 1008.57 1008.85 1009.10 1009.31 1009.47 1009.61 1009.74 1009.88 1010.03 1010.21 1010.43 1010.68 1010.96 1011.25 1011.54 1011.83 1012.10 1012.36 1012.60 1012.83 1013.05 1013.26 1013.45 1013.63 1013.78 1013.91 1014.01 1014.09 1014.17 1014.26 1014.37 1014.52 1014.71 1014.93 1015.18 1015.44 1015.68
1007.07 1007.46 1007.85 1008.21 1008.53 1008.81 1009.06 1009.28 1009.49 1009.69 1009.91 1010.15 1010.41 1010.69 1010.98 1011.26 1011.55 1011.82 1012.08 1012.33 1012.56 1012.76 1012.95 1013.11 1013.24 1013.34 1013.42 1013.47 1013.51 1013.55 1013.62 1013.72 1013.88 1014.08 1014.33 1014.61 1014.90 1015.18
1005.64 1006.11 1006.60 1007.08 1007.55 1007.97 1008.35 1008.69 1008.99 1009.27 1009.54 1009.80 1010.07 1010.34 1010.62 1010.91 1011.19 1011.47 1011.73 1011.99 1012.22 1012.42 1012.59 1012.73 1012.83 1012.88 1012.90 1012.90 1012.89 1012.89 1012.92 1013.00 1013.14 1013.34 1013.60 1013.89 1014.20 1014.51
1004.07 1004.60 1005.19 1005.81 1006.42 1007.00 1007.53 1008.00 1008.41 1008.77 1009.08 1009.37 1009.65 1009.92 1010.19 1010.46 1010.75 1011.03 1011.31 1011.58 1011.83 1012.05 1012.22 1012.35 1012.42 1012.44 1012.42 1012.37 1012.31 1012.26 1012.25 1012.29 1012.40 1012.58 1012.82 1013.10 1013.41 1013.72
1002.46 1003.04 1003.73 1004.48 1005.25 1005.99 1006.67 1007.27 1007.79 1008.22 1008.59 1008.90 1009.18 1009.44 1009.70 1009.97 1010.26 1010.55 1010.85 1011.15 1011.42 1011.66 1011.85 1011.98 1012.05 1012.06 1012.01 1011.92 1011.82 1011.73 1011.67 1011.67 1011.74 1011.88 1012.08 1012.34 1012.63 1012.93
1000.93 1001.57 1002.35 1003.23 1004.14 1005.02 1005.85 1006.57 1007.19 1007.70 1008.10 1008.44 1008.71 1008.96 1009.21 1009.47 1009.75 1010.06 1010.38 1010.70 1011.01 1011.28 1011.50 1011.66 1011.73 1011.74 1011.68 1011.57 1011.44 1011.32 1011.22 1011.18 1011.20 1011.30 1011.47 1011.69 1011.94 1012.20
999.60 1000.29 1001.16 1002.15 1003.18 1004.20 1005.14 1005.97 1006.67 1007.24 1007.68 1008.02 1008.29 1008.53 1008.75 1009.00 1009.28 1009.59 1009.92 1010.27 1010.61 1010.92 1011.18 1011.36 1011.46 1011.48 1011.43 1011.32 1011.18 1011.03 1010.91 1010.84 1010.83 1010.89 1011.01 1011.18 1011.39 1011.61
998.54 999.29 1000.24 1001.32 1002.45 1003.56 1004.60 1005.50 1006.26 1006.87 1007.32 1007.67 1007.93 1008.15 1008.36 1008.59 1008.85 1009.16 1009.51 1009.88 1010.24 1010.58 1010.87 1011.09 1011.22 1011.27 1011.23 1011.14 1011.00 1010.86 1010.73 1010.64 1010.61 1010.63 1010.71 1010.84 1010.99 1011.16
997.79 998.59 999.60 1000.74 1001.94 1003.11 1004.20 1005.16 1005.95 1006.57 1007.04 1007.38 1007.63 1007.83 1008.03 1008.24 1008.50 1008.80 1009.15 1009.52 1009.91 1010.27 1010.58 1010.82 1010.99 1011.07 1011.07 1011.00 1010.89 1010.76 1010.64 1010.55 1010.50 1010.49 1010.54 1010.62 1010.72 1010.82
997.35 998.19 999.23 1000.40 1001.62 1002.82 1003.92 1004.89 1005.69 1006.32 1006.79 1007.12 1007.37 1007.56 1007.75 1007.95 1008.20 1008.50 1008.84 1009.22 1009.61 1009.98 1010.31 1010.57 1010.76 1010.87 1010.91 1010.87 1010.79 1010.69 1010.59 1010.51 1010.45 1010.43 1010.44 1010.47 1010.52 1010.56
997.19 998.05 999.09 1000.24 1001.44 1002.62 1003.70 1004.64 1005.43 1006.05 1006.52 1006.86 1007.12 1007.32 1007.51 1007.72 1007.97 1008.26 1008.60 1008.98 1009.36 1009.73 1010.07 1010.34 1010.55 1010.69 1010.75 1010.75 1010.71 1010.64 1010.56 1010.48 1010.43 1010.39 1010.36 1010.35 1010.33 1010.30
997.26 998.10 999.10 1000.20 1001.34 1002.45 1003.48 1004.38 1005.14 1005.75 1006.22 1006.58 1006.85 1007.08 1007.29 1007.53 1007.79 1008.09 1008.44 1008.81 1009.18 1009.55 1009.88 1010.16 1010.38 1010.53 1010.61 1010.64 1010.63 1010.58 1010.52 1010.45 1010.39 1010.33 1010.26 1010.19 1010.11 1010.01
997.49 998.28 999.22 1000.23 1001.28 1002.30 1003.25 1004.10 1004.82 1005.42 1005.89 1006.28 1006.59 1006.86 1007.12 1007.38 1007.68 1008.00 1008.35 1008.72 1009.09 1009.44 1009.76 1010.03 1010.25 1010.41 1010.51 1010.55 1010.55 1010.52 1010.47 1010.40 1010.32 1010.23 1010.12 1010.00 1009.85 1009.68
997.84 998.57 999.42 1000.33 1001.27 1002.18 1003.04 1003.82 1004.51 1005.09 1005.58 1006.00 1006.36 1006.68 1006.99 1007.31 1007.64 1007.98 1008.35 1008.71 1009.07 1009.41 1009.71 1009.97 1010.18 1010.33 1010.43 1010.48 1010.49 1010.46 1010.40 1010.32 1010.21 1010.09 1009.94 1009.77 1009.56 1009.33
998.30 998.96 999.71 1000.51 1001.34 1002.15 1002.92 1003.64 1004.28 1004.85 1005.36 1005.81 1006.21 1006.59 1006.95 1007.31 1007.68 1008.04 1008.41 1008.77 1009.12 1009.44 1009.72 1009.96 1010.15 1010.29 1010.38 1010.42 1010.42 1010.38 1010.31 1010.21 1010.08 1009.92 1009.74 1009.52 1009.27 1008.99
998.87 999.47 1000.14 1000.84 1001.56 1002.27 1002.96 1003.62 1004.22 1004.78 1005.29 1005.77 1006.20 1006.62 1007.01 1007.40 1007.78 1008.16 1008.52 1008.87 1009.19 1009.49 1009.74 1009.96 1010.13 1010.25 1010.32 1010.35 1010.34 1010.28 1010.20 1010.08 1009.92 1009.74 1009.53 1009.28 1009.01 1008.71
999.59 1000.14 1000.73 1001.35 1001.99 1002.62 1003.24 1003.83 1004.40 1004.93 1005.43 1005.90 1006.35 1006.77 1007.17 1007.56 1007.93 1008.29 1008.63 1008.95 1009.24 1009.50 1009.72 1009.91 1010.05 1010.15 1010.21 1010.22 1010.20 1010.14 1010.04 1009.91 1009.75 1009.56 1009.33 1009.09 1008.82 1008.53
Thickness
5749 5748 5746 5746 5745 5744 5741 5737 5729 5720 5720 5725 5728 5731 5731 5730 5729 5727 5725 5723 5721 5719 5717 5715 5713 5711 5709 5707 5704 5702 5700 5698 5695 5693 5690 5688 5686 5683
5747 5746 5745 5744 5743 5742 5741 5738 5734 5728 5721 5725 5727 5729 5729 5729 5727 5725 5724 5722 5720 5718 5715 5713 5711 5709 5707 5704 5702 5699 5697 5695 5692 5689 5686 5684 5681 5679
5744 5743 5742 5743 5740 5739 5738 5736 5733 5730 5723 5724 5726 5727 5726 5725 5724 5722 5721 5719 5718 5715 5713 5711 5709 5707 5704 5702 5699 5697 5694 5691 5689 5686 5683 5681 5678 5675
5741 5741 5740 5740 5738 5737 5735 5734 5732 5730 5725 5721 5722 5722 5722 5722 5720 5718 5718 5716 5715 5713 5711 5709 5707 5704 5702 5700 5697 5695 5692 5689 5686 5683 5681 5678 5675 5672
5740 5738 5737 5736 5734 5733 5733 5731 5730 5730 5726 5721 5719 5719 5719 5718 5716 5714 5714 5713 5712 5711 5708 5706 5704 5702 5700 5698 5695 5692 5689 5686 5683 5681 5678 5675 5672 5669
5738 5737 5735 5734 5732 5730 5730 5728 5727 5724 5722 5719 5716 5715 5714 5714 5711 5709 5707 5708 5707 5708 5706 5704 5702 5700 5698 5696 5693 5690 5687 5684 5681 5679 5676 5672 5669 5666
5735 5735 5734 5733 5732 5730 5728 5725 5724 5720 5717 5714 5712 5710 5708 5707 5706 5706 5703 5703 5702 5703 5701 5700 5698 5696 5695 5693 5690 5688 5685 5683 5680 5677 5674 5670 5666 5663
5731 5731 5731 5730 5729 5728 5726 5725 5723 5719 5714 5711 5708 5706 5705 5705 5704 5702 5699 5695 5694 5698 5696 5694 5693 5692 5691 5690 5689 5686 5684 5681 5678 5675 5671 5667 5664 5660
5728 5726 5727 5726 5724 5723 5722 5721 5719 5718 5716 5712 5707 5706 5704 5703 5701 5698 5695 5693 5692 5695 5692 5689 5688 5687 5688 5688 5686 5684 5681 5678 5675 5672 5669 5665 5661 5657
5725 5724 5721 5720 5719 5717 5715 5713 5712 5712 5711 5710 5708 5707 5706 5704 5701 5698 5695 5692 5691 5691 5690 5685 5684 5683 5685 5685 5683 5681 5678 5675 5672 5669 5665 5661 5658 5654
5721 5720 5718 5716 5715 5712 5709 5706 5705 5706 5707 5706 5706 5704 5703 5701 5699 5694 5689 5685 5683 5684 5685 5682 5680 5678 5679 5679 5678 5676 5674 5671 5668 5665 5661 5658 5653 5649
5715 5714 5713 5712 5710 5707 5704 5701 5698 5699 5700 5699 5699 5699 5698 5697 5695 5692 5688 5682 5679 5678 5681 5677 5675 5672 5670 5673 5672 5671 5668 5665 5663 5660 5656 5653 5649 5644
5709 5708 5708 5707 5705 5703 5700 5698 5696 5695 5693 5692 5692 5692 5691 5691 5690 5689 5686 5682 5677 5676 5678 5674 5670 5667 5664 5663 5664 5664 5662 5659 5656 5653 5650 5647 5644 5640
5705 5704 5703 5702 5699 5697 5695 5694 5691 5688 5685 5684 5684 5684 5684 5685 5686 5685 5683 5681 5679 5677 5676 5672 5667 5664 5659 5656 5655 5656 5654 5653 5650 5647 5645 5642 5638 5635
5701 5700 5697 5695 5693 5691 5690 5687 5685 5681 5679 5677 5677 5679 5680 5681 5680 5679 5678 5677 5675 5673 5671 5668 5665 5661 5656 5653 5651 5649 5647 5646 5644 5641 5638 5635 5633 5630
5694 5692 5689 5687 5686 5685 5683 5681 5679 5677 5675 5673 5673 5674 5674 5673 5673 5672 5670 5669 5666 5665 5665 5663 5661 5658 5653 5650 5647 5645 5643 5641 5639 5637 5634 5631 5629 5626
5686 5682 5679 5677 5676 5675 5674 5674 5672 5670 5669 5668 5667 5667 5667 5666 5666 5666 5664 5661 5658 5657 5656 5656 5655 5653 5650 5646 5642 5640 5639 5637 5636 5632 5628 5626 5625 5623
5677 5675 5673 5672 5670 5669 5668 5667 5666 5665 5664 5663 5662 5661 5660 5660 5659 5659 5657 5654 5652 5651 5649 5648 5646 5643 5640 5640 5639 5636 5635 5633 5631 5628 5624 5621 5620 5619
5669 5668 5667 5666 5665 5664 5663 5662 5661 5661 5660 5659 5658 5656 5655 5654 5653 5651 5649 5648 5646 5645 5644 5642 5639 5635 5632 5631 5634 5633 5630 5628 5625 5622 5619 5616 5615 5615
5663 5662 5662 5661 5660 5659 5657 5656 5655 5654 5653 5653 5653 5651 5650 5648 5647 5645 5643 5642 5640 5638 5637 5635 5633 5631 5629 5627 5626 5625 5625 5621 5618 5615 5612 5610 5609 5609
5656 5656 5656 5655 5654 5652 5652 5650 5649 5648 5647 5647 5646 5645 5644 5642 5640 5639 5638 5636 5634 5632 5630 5629 5630 5627 5624 5620 5617 5617 5617 5617 5615 5611 5607 5603 5600 5599
5648 5648 5648 5647 5646 5645 5644 5643 5642 5641 5641 5640 5640 5640 5638 5636 5635 5634 5632 5629 5627 5625 5624 5623 5621 5618 5615 5612 5610 5609 5608 5608 5607 5605 5603 5602 5597 5594
5640 5640 5639 5639 5638 5637 5636 5635 5634 5634 5633 5633 5633 5632 5631 5629 5628 5627 5625 5623 5620 5618 5615 5613 5611 5609 5607 5605 5603 5602 5601 5599 5597 5595 5594 5595 5594 5594